www.pogodaiklimat.ru

Погода и климат >> Архив погоды >> Мексика >> Альтар


ПОГОДА в Альтаре

  • Прогноз погоды в Альтаре
  • Монитор погоды в Альтаре

АРХИВ ПОГОДЫ в Альтаре

Время (UTC), дата Ветер
(напр.,м/с)
 
Видим.   Явления Облачность Т
(С)
Тd
(С)
f
(%)
Тe
(С)
Тes
(С)
Комфортность P
(гПа)
Po
(гПа)
Тmin
(С)
Tmax
(С)
R
(мм)
R24
(мм)
S
(см)
03 15.08 З 1 20 км ясно +38.8 +15.0 25 +40 +40 очень
душно
1003.5 961.7
12 15.08 С 1 20 км ясно +27.2 +16.8 53 +31 +31 душно 1008.2 964.0 +27.0 +45.5
15 15.08 СВ 1 30 км ясно +30.2 +17.4 46 +34 +39 очень
душно
1009.0 964.8
18 15.08 ЮВ 1 30 км ясно +40.0 +19.6 31 +45 +66 опасность
перегрева
1009.2 965.0 +26.5 +40.5
21 15.08 ЮЗ 3 30 км ясно +44.5 +18.1 22 +48 +62 опасность
перегрева
1006.7 964.8
00 16.08 З 5 30 км ясно +45.0 +16.7 20 +47 +49 опасность
перегрева
1003.3 961.7 +26.5 +46.2
03 16.08 З 5 10 км ясно +38.0 +17.7 31 +41 +41 опасность
перегрева
1004.1 961.6
12 16.08 СВ 1 20 км ясно +27.0 +20.4 67 +33 +33 очень
душно
1011.3 967.1 +26.5 +46.2
15 16.08 В 1 30 км ясно +29.0 +20.4 60 +36 +41 очень
душно
1012.0 967.8
18 16.08 Ю 1 30 км ясно +33.0 +21.1 50 +41 +61 опасность
перегрева
1013.0 969.7 +26.5 +34.5
12 17.08 СВ 1 20 км ясно +27.0 +20.4 67 +33 +33 очень
душно
1006.9 962.9 +26.5 +43.0
15 17.08 В 1 30 км ясно +28.0 +17.1 52 +32 +37 душно 1007.7 963.7
18 17.08 Ю 1 30 км ясно +33.0 +21.1 50 +41 +61 опасность
перегрева
1008.5 964.5 +26.5 +34.0
21 17.08 ЮЗ 1 30 км ясно +39.0 +8.4 16 +37 +57 опасность
солнечного
удара
1009.2 965.2
00 18.08 СЗ 1 30 км ясно +42.0 +22.4 33 +50 +55 опасность
перегрева
1010.0 966.1 +26.5 +43.5
12 18.08 СВ 1 20 км ясно +28.0 +17.1 52 +32 +32 душно 1005.5 961.8 +27.5 +43.5
15 18.08 ЮВ 1 30 км ясно +29.0 +20.4 60 +36 +41 очень
душно
1006.2 962.6
18 18.08 Ю 1 30 км ясно +34.0 +19.1 42 +39 +60 опасность
солнечного
удара
1007.5 963.5 +27.5 +35.2
12 19.08 СВ 1 20 км ясно +27.2 +16.8 53 +31 +31 душно 1007.4 963.3 +27.0 +43.0
15 19.08 СВ 1 30 км ясно +30.2 +17.4 46 +34 +39 очень
душно
1008.5 964.3
18 19.08 Ю 1 30 км ясно +38.8 +22.1 38 +47 +67 опасность
перегрева
1008.6 964.4 +26.8 +39.0
21 19.08 Ю 1 30 км ясно +41.0 +21.0 32 +47 +67 опасность
перегрева
1007.2 965.0
00 20.08 З 5 30 км ясно +42.5 +20.7 29 +48 +50 опасность
перегрева
1003.8 961.9 +44.0
03 20.08 ЮЗ 6 20 км ясно +37.0 +18.0 33 +41 +41 опасность
перегрева
1004.8 962.1
12 20.08 С 1 20 км ясно +27.2 +16.4 52 +31 +31 душно 1005.6 961.8 +27.0 +44.0
15 20.08 СВ 1 30 км ясно +30.8 +14.8 38 +33 +38 душно 1007.0 962.9
18 20.08 С 1 30 км ясно +41.0 +13.7 20 +41 +61 опасность
перегрева
1006.5 962.4 +26.6 +41.5
21 20.08 ЮЗ 1 30 км ясно +44.5 +14.6 18 +45 +65 опасность
перегрева
1003.6 962.0
00 21.08 З 6 30 км ясно +44.0 +18.4 23 +47 +49 опасность
перегрева
1002.0 960.4 +26.6 +46.8
03 21.08 З 5 10 км ясно +39.0 +16.6 27 +41 +41 опасность
перегрева
1002.8 960.5
12 21.08 В 1 20 км ясно +26.8 +14.8 48 +29 +29 жарко 1004.7 960.6 +26.5 +46.8
15 21.08 СВ 1 30 км ясно +31.0 +15.1 38 +33 +38 душно 1005.8 961.6
18 21.08 В 1 30 км ясно +40.0 +18.1 28 +43 +63 опасность
перегрева
1006.4 962.2 +26.0 +40.5
21 21.08 Ю 1 30 км ясно +44.0 +18.4 23 +47 +67 опасность
перегрева
1003.7 962.0
00 22.08 С 2 30 км ясно +44.0 +16.8 21 +46 +50 опасность
перегрева
1001.3 959.7 +26.0 +45.5

 

Местоположение метеостанции Альтар (Мексика): широта 30.71 долгота -111.84 высота над уровнем моря 397 м.

В архиве по умолчанию представлена погода в Альтаре за последнюю неделю. Архивные данные за месяц целиком и за предыдущие месяцы, начиная с января 2011 года, Вы можете получить, выбрав интересующий диапазон дат из раскрывающегося списка и нажав кнопку "Ввод!".


*Определитесь, кто Вы:
робот инопланетянин человек

Внимание! Время в таблицах - всемирное. Для получения местного времени необходимо прибавить поправку, которая равна -8 ч.

Смотрите также архив погоды в соседних городах и на ближайших метеорологических станциях:

Погода в Пуэрто-Пеньяско (Мексика) (176 км)
Погода в Эрмосильо (Мексика) (196 км)
Погода в Эрмосильо Магна (Мексика) (201 км)
Погода в Накосари де Гарсия (Мексика) (210 км)
Погода в Сан-Фелипе (Мексика) (285 км)
Погода в Гуаймасе (Мексика) (324 км)
Погода в Эмпальме (Мексика) (326 км)
Погода в Нуэво Леон (Мексика) (362 км)
Погода в Нуэво-Касас-Грандесе (Мексика) (379 км)
Погода в Санта-Розалии (Мексика) (384 км)

Пояснения к столбцам:

Ветер - указаны скорость ветра в м/с - средняя за 10 мин, порывы в срок и между сроками (в фигурных скобках) и направление, откуда дует ветер: С - северный, СВ - северо-восточный, В - восточный, ЮВ - юго-восточный, Ю - южный, ЮЗ - юго-западный, З - западный, СЗ - северо-западный.
Видимость - горизонтальная дальность видимости в метрах или километрах. При видимости от 1 до 10 км при отсутствии осадков обычно наблюдается дымка, при ухудшении видимости до 1 км и менее - туман. В сухую погоду видимость может ухудшаться дымом, пылью или мглою.
Явления - указаны атмосферные явления, наблюдавшиеся в срок или в последний час перед сроком; фигурными скобками обозначены явления, наблюдавшиеся между сроками (за 1-3 часа до срока); квадратными скобками обозначены град или гололедные отложения с указанием их диаметра в мм.
Облачность - указаны через наклонную черту общая и нижняя облачность в баллах и высота нижней границы облаков в метрах; квадратными скобками обозначены формы облаков: Ci - перистые, Cs - перисто-слоистые, Cc - перисто-кучевые, Ac - высококучевые, As - высокослоистые, Sc - слоисто-кучевые, Ns - слоисто-дождевые, Cu - кучевые, Cb - кучево-дождевые. Подробнее классификацию облаков см. в Атласе облаков (PDF).
T - Температура воздуха - температура, измеренная на высоте 2 м над землей.
Td - Температура точки росы - температура, при понижении до которой содержащийся в воздухе водяной пар достигнет насыщения.
f - Относительная влажность воздуха - влажноcть воздуха, измеренная на высоте 2 м над землей.
Te - Эффективная температура - температура, которую ощущает одетый по сезону человек в тени. Характеристика душности погоды. При расчете учитывается влияние влажности воздуха и скорости ветра на теплоощущения человека.
Tes - Эффективная температура на солнце - температура, которую ощущает человек, с поправкой на солнечный нагрев. Характеристика знойности погоды. Зависит от высоты солнца над горизонтом, облачности и скорости ветра. Ночью, в пасмурную погоду, а также при ветре 12 м/с и более поправка равна нулю.
P - Атмосферное давление - приведенное к уровню моря атмосферное давление.
Po - Атмосферное давление - измеренное на уровне метеостанции атмосферное давление.
Tmin - Минимальная температура - минимум температуры воздуха на высоте 2 м над землей.
Tmax - Максимальная температура - максимум температуры воздуха на высоте 2 м над землей.
R - Количество осадков - Количество выпавших осадков за период времени, мм. При наведении курсора мыши на число - период времени, за который выпало указанное количество осадков.
R24 - Количество осадков - Количество выпавших осадков за 24 часа, мм.
S - Снежный покров - Высота снежного покрова, см. При наведении курсора мыши на число - состояние снежного покрова и степень покрытия местности в баллах.